QPF
0.00 0.00 0.00 0.00 0.00 0.00 0.00 0.00 0.00 0.00 0.00 0.00 0.00 0.00 0.00 0.00 0.00 0.00 0.00 0.00 0.00 0.00 0.00 0.00 0.00 0.00 0.00 0.00 0.00 0.00 0.00 0.00 0.00 0.00 0.00 0.00 0.00 0.00 0.00 0.00 0.00 0.00 0.00 0.00
0.00 0.00 0.00 0.00 0.00 0.00 0.00 0.00 0.00 0.00 0.00 0.00 0.00 0.00 0.00 0.00 0.00 0.00 0.00 0.00 0.00 0.00 0.00 0.00 0.00 0.00 0.00 0.00 0.00 0.00 0.00 0.00 0.00 0.00 0.00 0.00 0.00 0.00 0.00 0.00 0.00 0.00 0.00 0.00
0.00 0.00 0.00 0.00 0.00 0.00 0.00 0.00 0.00 0.00 0.00 0.00 0.00 0.00 0.00 0.00 0.00 0.00 0.00 0.00 0.00 0.00 0.00 0.00 0.00 0.00 0.00 0.00 0.00 0.00 0.00 0.00 0.00 0.00 0.00 0.00 0.00 0.00 0.00 0.00 0.00 0.00 0.00 0.00
0.00 0.00 0.00 0.00 0.00 0.00 0.00 0.00 0.00 0.00 0.00 0.00 0.00 0.00 0.00 0.00 0.00 0.00 0.00 0.00 0.00 0.00 0.00 0.00 0.00 0.00 0.00 0.00 0.00 0.00 0.00 0.00 0.00 0.00 0.00 0.00 0.00 0.00 0.00 0.00 0.00 0.00 0.00 0.00
0.00 0.00 0.00 0.00 0.00 0.00 0.00 0.00 0.00 0.00 0.00 0.00 0.00 0.00 0.00 0.00 0.00 0.00 0.00 0.00 0.00 0.00 0.00 0.00 0.00 0.00 0.00 0.00 0.00 0.00 0.00 0.00 0.00 0.00 0.00 0.00 0.00 0.00 0.00 0.00 0.00 0.00 0.00 0.00
0.00 0.00 0.00 0.00 0.00 0.00 0.00 0.00 0.00 0.00 0.00 0.00 0.00 0.00 0.00 0.00 0.00 0.00 0.00 0.00 0.00 0.00 0.00 0.00 0.00 0.00 0.00 0.00 0.00 0.00 0.00 0.00 0.00 0.00 0.00 0.00 0.00 0.00 0.00 0.00 0.00 0.00 0.00 0.00
0.00 0.00 0.00 0.00 0.00 0.00 0.00 0.00 0.00 0.00 0.00 0.00 0.00 0.00 0.00 0.00 0.00 0.00 0.00 0.00 0.00 0.00 0.00 0.00 0.00 0.00 0.00 0.00 0.00 0.00 0.00 0.00 0.00 0.00 0.00 0.00 0.00 0.00 0.00 0.00 0.00 0.00 0.00 0.00
0.00 0.00 0.00 0.00 0.00 0.00 0.00 0.00 0.00 0.00 0.00 0.00 0.00 0.00 0.00 0.00 0.00 0.00 0.00 0.00 0.00 0.00 0.00 0.00 0.00 0.00 0.00 0.00 0.00 0.00 0.00 0.00 0.00 0.00 0.00 0.00 0.00 0.00 0.00 0.00 0.00 0.00 0.00 0.00
0.00 0.00 0.00 0.00 0.00 0.00 0.00 0.00 0.00 0.00 0.00 0.00 0.00 0.00 0.00 0.00 0.00 0.00 0.00 0.00 0.00 0.00 0.00 0.00 0.00 0.00 0.00 0.00 0.00 0.00 0.00 0.00 0.00 0.00 0.00 0.00 0.00 0.00 0.00 0.00 0.00 0.00 0.00 0.00
0.00 0.00 0.00 0.00 0.00 0.00 0.00 0.00 0.00 0.00 0.00 0.00 0.00 0.00 0.00 0.00 0.00 0.00 0.00 0.00 0.00 0.00 0.00 0.00 0.00 0.00 0.00 0.00 0.00 0.00 0.00 0.00 0.00 0.00 0.00 0.00 0.00 0.00 0.00 0.00 0.00 0.00 0.00 0.00
0.00 0.00 0.00 0.00 0.00 0.00 0.00 0.00 0.00 0.00 0.00 0.00 0.00 0.00 0.00 0.00 0.00 0.00 0.00 0.00 0.00 0.00 0.00 0.00 0.00 0.00 0.00 0.00 0.00 0.00 0.00 0.00 0.00 0.00 0.00 0.00 0.00 0.00 0.00 0.00 0.00 0.00 0.00 0.00
0.00 0.00 0.00 0.00 0.00 0.00 0.00 0.00 0.00 0.00 0.00 0.00 0.00 0.00 0.00 0.00 0.00 0.00 0.00 0.00 0.00 0.00 0.00 0.00 0.00 0.00 0.00 0.00 0.00 0.00 0.00 0.00 0.00 0.00 0.00 0.00 0.00 0.00 0.00 0.00 0.00 0.00 0.00 0.00
0.00 0.00 0.00 0.00 0.00 0.00 0.00 0.00 0.00 0.00 0.00 0.00 0.00 0.00 0.00 0.00 0.00 0.00 0.00 0.00 0.00 0.00 0.00 0.00 0.00 0.00 0.00 0.00 0.00 0.00 0.00 0.00 0.00 0.00 0.00 0.00 0.00 0.00 0.00 0.00 0.00 0.00 0.00 0.00
0.00 0.00 0.00 0.00 0.00 0.00 0.00 0.00 0.00 0.00 0.00 0.00 0.00 0.00 0.00 0.00 0.00 0.00 0.00 0.00 0.00 0.00 0.00 0.00 0.00 0.00 0.00 0.00 0.00 0.00 0.00 0.00 0.00 0.00 0.00 0.00 0.00 0.00 0.00 0.00 0.00 0.00 0.00 0.00
0.00 0.00 0.00 0.00 0.00 0.00 0.00 0.00 0.00 0.00 0.00 0.00 0.00 0.00 0.00 0.00 0.00 0.00 0.00 0.00 0.00 0.00 0.00 0.00 0.00 0.00 0.00 0.00 0.00 0.00 0.00 0.00 0.00 0.00 0.00 0.00 0.00 0.00 0.00 0.00 0.00 0.00 0.00 0.00
0.00 0.00 0.00 0.00 0.00 0.00 0.00 0.00 0.00 0.00 0.00 0.00 0.00 0.00 0.00 0.00 0.00 0.00 0.00 0.00 0.00 0.00 0.00 0.00 0.00 0.00 0.00 0.00 0.00 0.00 0.00 0.00 0.00 0.00 0.00 0.00 0.00 0.00 0.00 0.00 0.00 0.00 0.00 0.00
0.00 0.00 0.00 0.00 0.00 0.00 0.00 0.00 0.00 0.00 0.00 0.00 0.00 0.00 0.00 0.00 0.00 0.00 0.00 0.00 0.00 0.00 0.00 0.00 0.00 0.00 0.00 0.00 0.00 0.00 0.00 0.00 0.00 0.00 0.00 0.00 0.00 0.00 0.00 0.01 0.01 0.00 0.00 0.00
0.00 0.00 0.00 0.00 0.00 0.00 0.00 0.00 0.00 0.00 0.00 0.00 0.00 0.00 0.00 0.00 0.00 0.00 0.00 0.00 0.00 0.00 0.00 0.00 0.00 0.00 0.00 0.00 0.00 0.00 0.00 0.00 0.00 0.00 0.00 0.00 0.00 0.01 0.01 0.01 0.01 0.01 0.00 0.00
0.00 0.00 0.00 0.00 0.00 0.00 0.00 0.00 0.00 0.00 0.00 0.00 0.00 0.00 0.00 0.00 0.00 0.00 0.00 0.00 0.00 0.00 0.00 0.00 0.00 0.00 0.00 0.00 0.00 0.00 0.00 0.00 0.00 0.00 0.00 0.00 0.00 0.00 0.01 0.01 0.01 0.01 0.01 0.00
0.00 0.00 0.00 0.00 0.00 0.00 0.00 0.00 0.00 0.00 0.00 0.00 0.00 0.00 0.00 0.00 0.00 0.00 0.00 0.00 0.00 0.00 0.00 0.00 0.00 0.00 0.00 0.00 0.00 0.00 0.00 0.00 0.00 0.00 0.00 0.00 0.00 0.00 0.00 0.00 0.00 0.00 0.00 0.00
0.00 0.00 0.00 0.00 0.00 0.00 0.00 0.00 0.00 0.00 0.00 0.00 0.00 0.00 0.00 0.00 0.00 0.00 0.00 0.00 0.00 0.00 0.00 0.00 0.00 0.00 0.00 0.00 0.00 0.00 0.00 0.00 0.00 0.00 0.00 0.00 0.00 0.00 0.00 0.00 0.00 0.00 0.00 0.00
0.00 0.00 0.00 0.00 0.00 0.00 0.00 0.00 0.00 0.00 0.00 0.00 0.00 0.00 0.00 0.00 0.00 0.00 0.00 0.00 0.00 0.00 0.00 0.00 0.00 0.00 0.00 0.00 0.00 0.00 0.00 0.00 0.00 0.00 0.00 0.00 0.00 0.00 0.00 0.00 0.00 0.00 0.00 0.00
0.00 0.00 0.00 0.00 0.00 0.00 0.00 0.00 0.00 0.00 0.00 0.00 0.00 0.00 0.00 0.00 0.00 0.00 0.00 0.00 0.00 0.00 0.00 0.00 0.00 0.00 0.00 0.00 0.00 0.00 0.00 0.00 0.00 0.00 0.00 0.00 0.00 0.00 0.01 0.01 0.01 0.01 0.01 0.01
0.00 0.00 0.00 0.00 0.00 0.00 0.00 0.00 0.00 0.00 0.00 0.00 0.00 0.00 0.00 0.00 0.00 0.00 0.00 0.00 0.00 0.00 0.00 0.00 0.00 0.00 0.00 0.00 0.00 0.00 0.00 0.00 0.00 0.00 0.00 0.01 0.01 0.01 0.01 0.01 0.01 0.01 0.01 0.01
0.00 0.00 0.00 0.00 0.00 0.00 0.00 0.00 0.00 0.00 0.00 0.00 0.00 0.00 0.00 0.00 0.00 0.00 0.00 0.00 0.00 0.00 0.00 0.00 0.00 0.00 0.00 0.00 0.00 0.00 0.00 0.00 0.00 0.01 0.01 0.01 0.01 0.01 0.01 0.01 0.01 0.01 0.01 0.01
0.00 0.00 0.00 0.00 0.00 0.00 0.00 0.00 0.00 0.00 0.00 0.00 0.00 0.00 0.00 0.00 0.00 0.00 0.00 0.00 0.00 0.00 0.00 0.00 0.00 0.00 0.00 0.00 0.00 0.00 0.00 0.00 0.00 0.00 0.01 0.01 0.01 0.01 0.01 0.01 0.01 0.01 0.01 0.01
0.00 0.00 0.00 0.00 0.00 0.00 0.00 0.00 0.00 0.00 0.00 0.00 0.00 0.00 0.00 0.00 0.00 0.00 0.00 0.00 0.00 0.00 0.00 0.00 0.00 0.00 0.00 0.00 0.00 0.00 0.00 0.00 0.01 0.01 0.01 0.01 0.01 0.01 0.01 0.01 0.01 0.01 0.01 0.01
MSLP
1008.31 1008.84 1009.24 1009.51 1009.65 1009.68 1009.59 1009.41 1009.16 1008.85 1008.51 1008.17 1007.86 1007.61 1007.44 1007.36 1007.39 1007.52 1007.73 1008.03 1008.39 1008.80 1009.24 1009.72 1010.22 1010.76 1011.32 1011.90 1012.52 1013.15 1013.79 1014.43 1015.07 1015.70 1016.31 1016.91 1017.49 1018.07 1018.62 1019.16 1019.66 1020.13 1020.54 1020.88
1007.89 1008.33 1008.62 1008.77 1008.79 1008.71 1008.54 1008.30 1008.03 1007.74 1007.46 1007.21 1007.00 1006.85 1006.76 1006.76 1006.83 1006.97 1007.18 1007.45 1007.78 1008.17 1008.60 1009.07 1009.58 1010.14 1010.73 1011.35 1011.99 1012.64 1013.29 1013.94 1014.58 1015.20 1015.80 1016.39 1016.97 1017.53 1018.09 1018.63 1019.14 1019.62 1020.04 1020.38
1007.47 1007.81 1008.00 1008.04 1007.96 1007.77 1007.53 1007.25 1006.96 1006.70 1006.47 1006.29 1006.17 1006.11 1006.12 1006.19 1006.31 1006.48 1006.71 1006.98 1007.30 1007.67 1008.08 1008.55 1009.06 1009.62 1010.22 1010.85 1011.50 1012.16 1012.81 1013.45 1014.08 1014.69 1015.29 1015.87 1016.45 1017.01 1017.57 1018.12 1018.64 1019.12 1019.54 1019.89
1006.96 1007.21 1007.32 1007.28 1007.12 1006.87 1006.58 1006.27 1005.99 1005.75 1005.57 1005.47 1005.44 1005.48 1005.57 1005.72 1005.90 1006.13 1006.38 1006.66 1006.98 1007.34 1007.75 1008.20 1008.70 1009.25 1009.84 1010.46 1011.10 1011.75 1012.39 1013.03 1013.64 1014.25 1014.84 1015.42 1015.99 1016.56 1017.12 1017.67 1018.19 1018.66 1019.08 1019.42
1006.28 1006.47 1006.52 1006.44 1006.24 1005.97 1005.67 1005.37 1005.12 1004.92 1004.81 1004.78 1004.84 1004.97 1005.16 1005.39 1005.64 1005.92 1006.21 1006.52 1006.85 1007.20 1007.60 1008.03 1008.51 1009.04 1009.61 1010.21 1010.83 1011.45 1012.08 1012.70 1013.31 1013.90 1014.49 1015.06 1015.64 1016.21 1016.76 1017.30 1017.81 1018.27 1018.66 1018.98
1005.39 1005.56 1005.59 1005.50 1005.32 1005.07 1004.80 1004.55 1004.35 1004.22 1004.18 1004.24 1004.38 1004.60 1004.88 1005.19 1005.52 1005.86 1006.20 1006.53 1006.88 1007.23 1007.61 1008.03 1008.48 1008.98 1009.52 1010.08 1010.67 1011.28 1011.88 1012.49 1013.08 1013.67 1014.24 1014.82 1015.39 1015.95 1016.49 1017.01 1017.50 1017.93 1018.29 1018.56
1004.31 1004.48 1004.53 1004.48 1004.35 1004.16 1003.97 1003.79 1003.67 1003.62 1003.67 1003.81 1004.04 1004.35 1004.71 1005.10 1005.51 1005.91 1006.29 1006.66 1007.02 1007.38 1007.76 1008.15 1008.58 1009.04 1009.54 1010.07 1010.63 1011.21 1011.79 1012.38 1012.96 1013.53 1014.10 1014.66 1015.21 1015.75 1016.28 1016.77 1017.22 1017.61 1017.92 1018.16
1003.10 1003.29 1003.39 1003.41 1003.36 1003.27 1003.17 1003.09 1003.06 1003.11 1003.24 1003.48 1003.79 1004.18 1004.62 1005.09 1005.56 1006.02 1006.45 1006.86 1007.24 1007.60 1007.97 1008.35 1008.75 1009.18 1009.65 1010.15 1010.68 1011.23 1011.79 1012.36 1012.92 1013.48 1014.02 1014.56 1015.09 1015.59 1016.08 1016.53 1016.93 1017.28 1017.55 1017.73
1001.86 1002.09 1002.26 1002.36 1002.42 1002.43 1002.44 1002.47 1002.54 1002.68 1002.90 1003.21 1003.61 1004.07 1004.58 1005.11 1005.64 1006.16 1006.64 1007.08 1007.48 1007.86 1008.22 1008.58 1008.97 1009.37 1009.81 1010.29 1010.79 1011.32 1011.86 1012.40 1012.94 1013.47 1013.99 1014.49 1014.97 1015.44 1015.87 1016.27 1016.62 1016.91 1017.13 1017.28
1000.69 1000.97 1001.21 1001.41 1001.56 1001.69 1001.81 1001.94 1002.11 1002.34 1002.64 1003.02 1003.48 1004.00 1004.56 1005.15 1005.73 1006.29 1006.81 1007.29 1007.72 1008.11 1008.48 1008.84 1009.21 1009.60 1010.03 1010.48 1010.96 1011.47 1011.98 1012.50 1013.01 1013.50 1013.98 1014.43 1014.86 1015.26 1015.63 1015.96 1016.26 1016.50 1016.68 1016.79
999.67 1000.00 1000.32 1000.61 1000.87 1001.10 1001.32 1001.54 1001.79 1002.09 1002.45 1002.89 1003.40 1003.96 1004.57 1005.20 1005.83 1006.43 1006.99 1007.50 1007.96 1008.37 1008.75 1009.12 1009.49 1009.87 1010.28 1010.72 1011.19 1011.67 1012.16 1012.64 1013.11 1013.56 1013.98 1014.37 1014.73 1015.06 1015.36 1015.63 1015.86 1016.04 1016.18 1016.26
998.86 999.24 999.63 1000.00 1000.34 1000.67 1000.97 1001.28 1001.60 1001.96 1002.37 1002.84 1003.39 1003.99 1004.63 1005.30 1005.96 1006.59 1007.19 1007.73 1008.21 1008.65 1009.05 1009.43 1009.80 1010.19 1010.59 1011.02 1011.46 1011.92 1012.39 1012.84 1013.26 1013.66 1014.01 1014.33 1014.61 1014.86 1015.08 1015.27 1015.43 1015.56 1015.65 1015.70
998.22 998.65 999.11 999.56 999.99 1000.39 1000.78 1001.15 1001.54 1001.95 1002.40 1002.90 1003.48 1004.10 1004.77 1005.46 1006.14 1006.81 1007.43 1008.00 1008.51 1008.97 1009.39 1009.78 1010.16 1010.54 1010.94 1011.36 1011.79 1012.23 1012.65 1013.06 1013.44 1013.77 1014.05 1014.29 1014.49 1014.65 1014.78 1014.89 1014.98 1015.05 1015.10 1015.11
997.70 998.19 998.71 999.24 999.75 1000.24 1000.70 1001.15 1001.59 1002.04 1002.54 1003.08 1003.67 1004.32 1005.00 1005.71 1006.42 1007.10 1007.75 1008.34 1008.87 1009.35 1009.78 1010.18 1010.56 1010.95 1011.34 1011.74 1012.14 1012.54 1012.93 1013.29 1013.61 1013.87 1014.08 1014.24 1014.35 1014.43 1014.47 1014.50 1014.52 1014.53 1014.52 1014.50
997.23 997.78 998.37 998.98 999.58 1000.16 1000.70 1001.22 1001.73 1002.24 1002.77 1003.35 1003.97 1004.64 1005.34 1006.06 1006.78 1007.48 1008.14 1008.75 1009.29 1009.78 1010.22 1010.62 1011.00 1011.37 1011.74 1012.11 1012.48 1012.84 1013.18 1013.48 1013.73 1013.93 1014.06 1014.14 1014.16 1014.15 1014.12 1014.07 1014.01 1013.96 1013.91 1013.84
996.75 997.37 998.05 998.74 999.44 1000.11 1000.74 1001.34 1001.92 1002.50 1003.08 1003.70 1004.35 1005.04 1005.77 1006.50 1007.24 1007.95 1008.61 1009.22 1009.77 1010.25 1010.68 1011.07 1011.43 1011.77 1012.11 1012.44 1012.76 1013.06 1013.34 1013.57 1013.76 1013.88 1013.93 1013.93 1013.88 1013.79 1013.68 1013.56 1013.45 1013.34 1013.23 1013.13
996.28 996.97 997.73 998.52 999.31 1000.07 1000.80 1001.49 1002.16 1002.80 1003.45 1004.11 1004.80 1005.52 1006.26 1007.01 1007.75 1008.46 1009.12 1009.72 1010.26 1010.73 1011.14 1011.50 1011.82 1012.12 1012.40 1012.67 1012.93 1013.16 1013.37 1013.52 1013.63 1013.68 1013.66 1013.58 1013.46 1013.31 1013.14 1012.96 1012.80 1012.64 1012.50 1012.36
995.86 996.63 997.47 998.34 999.23 1000.08 1000.90 1001.68 1002.42 1003.14 1003.85 1004.57 1005.29 1006.04 1006.80 1007.55 1008.29 1008.99 1009.64 1010.22 1010.73 1011.17 1011.55 1011.86 1012.13 1012.37 1012.59 1012.78 1012.96 1013.11 1013.23 1013.30 1013.32 1013.30 1013.21 1013.07 1012.89 1012.69 1012.47 1012.26 1012.05 1011.86 1011.70 1011.55
995.61 996.44 997.35 998.30 999.25 1000.19 1001.09 1001.94 1002.76 1003.54 1004.30 1005.06 1005.82 1006.58 1007.34 1008.09 1008.82 1009.50 1010.13 1010.68 1011.15 1011.55 1011.87 1012.13 1012.34 1012.50 1012.64 1012.75 1012.83 1012.89 1012.92 1012.90 1012.85 1012.75 1012.60 1012.40 1012.18 1011.94 1011.70 1011.46 1011.24 1011.04 1010.86 1010.71
995.65 996.53 997.48 998.48 999.48 1000.47 1001.42 1002.33 1003.19 1004.02 1004.82 1005.60 1006.38 1007.14 1007.90 1008.63 1009.33 1009.98 1010.57 1011.07 1011.50 1011.84 1012.10 1012.30 1012.43 1012.52 1012.57 1012.58 1012.57 1012.54 1012.48 1012.38 1012.25 1012.08 1011.87 1011.64 1011.39 1011.13 1010.87 1010.62 1010.40 1010.20 1010.03 1009.88
996.06 996.95 997.93 998.94 999.97 1000.97 1001.95 1002.88 1003.76 1004.61 1005.42 1006.21 1006.98 1007.73 1008.46 1009.16 1009.81 1010.42 1010.95 1011.40 1011.77 1012.04 1012.24 1012.36 1012.43 1012.43 1012.40 1012.33 1012.23 1012.11 1011.96 1011.79 1011.60 1011.37 1011.12 1010.86 1010.59 1010.32 1010.05 1009.81 1009.60 1009.41 1009.25 1009.12
996.84 997.74 998.71 999.72 1000.73 1001.73 1002.70 1003.62 1004.50 1005.34 1006.14 1006.90 1007.64 1008.35 1009.04 1009.68 1010.28 1010.81 1011.28 1011.66 1011.96 1012.17 1012.30 1012.36 1012.35 1012.28 1012.18 1012.03 1011.86 1011.67 1011.46 1011.22 1010.97 1010.71 1010.43 1010.14 1009.86 1009.59 1009.33 1009.09 1008.89 1008.71 1008.56 1008.44
997.96 998.85 999.79 1000.77 1001.75 1002.72 1003.65 1004.54 1005.39 1006.19 1006.95 1007.67 1008.36 1009.01 1009.63 1010.20 1010.72 1011.18 1011.56 1011.87 1012.10 1012.24 1012.30 1012.29 1012.23 1012.10 1011.94 1011.74 1011.51 1011.27 1011.01 1010.73 1010.44 1010.15 1009.85 1009.56 1009.27 1008.99 1008.74 1008.50 1008.30 1008.12 1007.97 1007.84
999.29 1000.16 1001.07 1002.00 1002.94 1003.86 1004.74 1005.58 1006.38 1007.13 1007.84 1008.50 1009.12 1009.70 1010.23 1010.72 1011.15 1011.51 1011.81 1012.04 1012.19 1012.26 1012.26 1012.20 1012.08 1011.92 1011.71 1011.48 1011.21 1010.94 1010.65 1010.35 1010.04 1009.73 1009.43 1009.12 1008.83 1008.55 1008.28 1008.04 1007.83 1007.63 1007.46 1007.30
1000.70 1001.54 1002.42 1003.31 1004.19 1005.05 1005.89 1006.68 1007.42 1008.11 1008.75 1009.35 1009.89 1010.38 1010.83 1011.22 1011.55 1011.82 1012.03 1012.17 1012.24 1012.25 1012.19 1012.09 1011.93 1011.73 1011.51 1011.25 1010.98 1010.69 1010.39 1010.08 1009.77 1009.45 1009.13 1008.82 1008.51 1008.22 1007.93 1007.67 1007.42 1007.19 1006.98 1006.77
1002.05 1002.88 1003.72 1004.56 1005.40 1006.22 1007.00 1007.73 1008.42 1009.05 1009.63 1010.15 1010.62 1011.03 1011.38 1011.67 1011.91 1012.09 1012.20 1012.26 1012.26 1012.21 1012.10 1011.96 1011.78 1011.56 1011.32 1011.07 1010.79 1010.50 1010.20 1009.89 1009.57 1009.25 1008.92 1008.59 1008.27 1007.94 1007.63 1007.32 1007.02 1006.73 1006.46 1006.19
1003.28 1004.08 1004.89 1005.70 1006.50 1007.27 1008.00 1008.69 1009.32 1009.90 1010.42 1010.88 1011.27 1011.59 1011.86 1012.06 1012.21 1012.30 1012.33 1012.31 1012.25 1012.14 1012.00 1011.82 1011.62 1011.40 1011.15 1010.89 1010.62 1010.34 1010.04 1009.72 1009.40 1009.07 1008.72 1008.36 1008.00 1007.64 1007.27 1006.91 1006.55 1006.19 1005.84 1005.50
Thickness
5616 5614 5612 5612 5611 5607 5608 5617 5617 5626 5627 5635 5639 5639 5640 5640 5637 5633 5631 5628 5626 5623 5622 5617 5612 5607 5602 5595 5588 5580 5573 5567 5560 5553 5545 5536 5528 5520 5512 5504 5497 5491 5484 5478
5600 5599 5600 5601 5607 5608 5608 5614 5617 5620 5625 5638 5638 5636 5633 5633 5631 5627 5627 5624 5621 5618 5615 5611 5607 5602 5595 5589 5581 5574 5567 5560 5552 5543 5535 5527 5519 5511 5503 5496 5489 5482 5475 5469
5595 5590 5585 5593 5609 5608 5608 5612 5615 5614 5627 5634 5629 5627 5627 5628 5626 5625 5623 5620 5616 5613 5609 5605 5601 5595 5589 5582 5574 5566 5559 5551 5542 5534 5526 5518 5510 5502 5495 5488 5481 5474 5468 5462
5586 5578 5574 5614 5622 5620 5615 5617 5617 5621 5629 5630 5628 5626 5624 5624 5623 5621 5617 5613 5610 5606 5602 5597 5592 5586 5580 5572 5564 5557 5550 5542 5533 5525 5517 5509 5501 5494 5487 5480 5473 5466 5460 5454
5578 5583 5594 5606 5610 5611 5608 5614 5623 5620 5624 5624 5616 5613 5620 5620 5617 5615 5612 5606 5602 5597 5592 5587 5581 5575 5569 5562 5554 5547 5540 5533 5525 5516 5508 5500 5493 5486 5479 5471 5465 5458 5451 5445
5576 5578 5584 5612 5616 5612 5608 5609 5628 5622 5621 5618 5606 5609 5621 5614 5608 5604 5599 5594 5589 5585 5580 5576 5570 5564 5558 5551 5545 5538 5530 5523 5515 5507 5499 5491 5484 5477 5469 5462 5455 5448 5442 5436
5579 5581 5598 5612 5604 5603 5599 5617 5626 5621 5619 5613 5608 5616 5611 5603 5598 5592 5587 5581 5577 5573 5569 5563 5557 5552 5547 5541 5535 5527 5518 5511 5503 5496 5489 5482 5475 5467 5459 5452 5445 5440 5434 5428
5578 5579 5591 5602 5596 5605 5619 5621 5618 5616 5614 5609 5607 5600 5595 5592 5586 5581 5574 5569 5566 5562 5556 5550 5545 5541 5537 5530 5522 5514 5506 5500 5493 5486 5477 5470 5464 5457 5449 5442 5436 5430 5424 5419
5592 5601 5609 5604 5610 5615 5614 5613 5612 5610 5606 5603 5597 5593 5587 5582 5577 5571 5565 5559 5555 5551 5544 5538 5533 5530 5525 5517 5508 5502 5495 5489 5481 5473 5466 5459 5453 5446 5439 5432 5425 5419 5413 5407
5586 5593 5597 5598 5602 5601 5603 5606 5605 5603 5600 5596 5593 5587 5580 5573 5567 5561 5554 5549 5543 5539 5534 5527 5521 5516 5511 5503 5496 5491 5485 5477 5469 5463 5456 5449 5441 5434 5428 5421 5414 5407 5400 5394
5585 5590 5588 5591 5595 5598 5596 5595 5595 5592 5591 5589 5586 5580 5574 5567 5559 5552 5543 5537 5533 5529 5524 5516 5509 5503 5496 5490 5485 5479 5473 5465 5458 5451 5445 5439 5431 5424 5417 5410 5400 5392 5386 5378
5592 5596 5595 5600 5601 5596 5592 5590 5589 5585 5581 5578 5577 5572 5566 5559 5550 5542 5534 5527 5521 5517 5511 5504 5497 5490 5484 5478 5473 5467 5461 5454 5447 5440 5433 5427 5421 5415 5407 5396 5389 5379 5370 5362
5596 5593 5594 5593 5591 5589 5588 5587 5582 5579 5576 5570 5566 5562 5556 5547 5538 5530 5523 5517 5511 5505 5498 5492 5485 5478 5471 5465 5460 5454 5449 5442 5435 5428 5422 5415 5408 5402 5397 5391 5380 5369 5360 5350
5580 5581 5580 5581 5583 5580 5578 5575 5571 5566 5563 5560 5554 5548 5541 5533 5525 5519 5512 5505 5499 5493 5486 5480 5474 5467 5459 5453 5447 5441 5435 5428 5421 5416 5409 5402 5395 5388 5382 5376 5370 5362 5350 5339
5572 5575 5578 5575 5570 5565 5562 5560 5557 5553 5548 5542 5539 5534 5528 5522 5514 5506 5498 5491 5485 5480 5474 5468 5462 5455 5447 5441 5435 5429 5423 5417 5410 5403 5396 5389 5381 5374 5367 5359 5352 5345 5337 5328
5564 5560 5560 5561 5559 5554 5552 5552 5551 5544 5538 5531 5526 5521 5515 5508 5499 5491 5485 5479 5475 5469 5462 5456 5450 5443 5435 5429 5423 5417 5411 5403 5395 5390 5383 5376 5368 5360 5351 5343 5336 5328 5321 5313
5555 5553 5553 5554 5552 5548 5547 5547 5545 5537 5528 5521 5514 5505 5498 5491 5485 5478 5472 5467 5462 5456 5450 5444 5437 5430 5423 5417 5411 5405 5399 5392 5383 5376 5370 5362 5353 5345 5336 5328 5320 5313 5306 5297
5566 5567 5562 5560 5554 5545 5538 5533 5529 5522 5515 5507 5498 5492 5487 5482 5476 5467 5459 5453 5448 5442 5437 5431 5424 5417 5411 5405 5398 5393 5386 5380 5372 5365 5357 5349 5340 5331 5322 5314 5307 5299 5293 5284
5551 5552 5550 5545 5543 5537 5529 5521 5514 5507 5499 5492 5487 5481 5475 5468 5461 5453 5447 5442 5438 5432 5424 5417 5410 5405 5399 5393 5386 5380 5374 5367 5360 5352 5344 5336 5327 5318 5309 5301 5293 5286 5278 5270
5537 5535 5532 5528 5523 5519 5513 5506 5499 5492 5486 5480 5474 5466 5459 5452 5445 5440 5435 5430 5425 5419 5411 5405 5399 5394 5387 5381 5374 5369 5362 5355 5348 5340 5332 5323 5315 5306 5297 5289 5280 5272 5265 5259
5523 5519 5515 5511 5505 5501 5496 5491 5486 5478 5471 5466 5461 5454 5445 5438 5432 5427 5423 5419 5410 5404 5398 5393 5388 5382 5376 5370 5363 5358 5351 5343 5335 5327 5318 5309 5301 5292 5284 5276 5268 5261 5255 5250
5507 5504 5499 5494 5489 5482 5478 5475 5470 5463 5456 5450 5443 5437 5430 5424 5418 5413 5409 5405 5398 5391 5386 5382 5376 5370 5364 5359 5353 5346 5338 5329 5321 5312 5303 5294 5286 5279 5271 5264 5257 5251 5246 5242
5492 5488 5483 5478 5473 5466 5461 5457 5452 5448 5441 5435 5429 5424 5419 5413 5409 5404 5398 5390 5385 5379 5375 5370 5364 5358 5353 5347 5340 5332 5324 5315 5306 5297 5289 5281 5273 5265 5259 5253 5248 5243 5239 5235
5475 5470 5465 5460 5457 5452 5444 5437 5433 5429 5423 5418 5413 5408 5404 5399 5394 5388 5383 5377 5371 5367 5363 5357 5352 5346 5340 5334 5326 5317 5309 5300 5292 5283 5276 5268 5261 5254 5248 5244 5240 5237 5233 5230
5457 5453 5449 5446 5442 5435 5427 5421 5416 5411 5408 5403 5397 5392 5389 5385 5380 5374 5369 5364 5359 5355 5351 5345 5339 5333 5326 5319 5311 5303 5295 5287 5278 5271 5265 5258 5251 5245 5241 5237 5233 5230 5228 5226
5442 5439 5435 5432 5427 5420 5415 5411 5406 5400 5396 5390 5384 5379 5374 5370 5365 5361 5356 5352 5347 5343 5338 5332 5326 5319 5312 5305 5298 5290 5282 5275 5267 5259 5253 5247 5242 5238 5234 5231 5228 5225 5224 5223
5424 5420 5416 5411 5406 5404 5400 5396 5391 5386 5381 5378 5372 5366 5361 5357 5353 5349 5344 5340 5335 5330 5325 5319 5313 5307 5300 5293 5285 5278 5270 5263 5257 5251 5245 5241 5237 5233 5230 5227 5225 5223 5222 5221